Details From KFVE - Northern Aroostook Rgnl
To KBML - Berlin Muni
Flight Number -
Tags Novice Decoded
Created
Modified
Stats Distance 273 nm / 505 km
Max Altitude 0 ft / 0 m
Waypoints 9
Social Downloads 7
Likes 0
Share VATSIM

Download

Looking for another format? Having issues loading an existing format? Contact us
Advertisement - Login to hide

Notes

Decoded

Route

KFVE PQI MLT BGR ANSYN ROOTS ELSEQ BML KBML

ID Type Via Altitude Latitude Longitude Leg Dist Tot Dist Heading (true) Name
O KFVE APT - 0 ft / 0 m 47.28822˚ -68.32110˚ - 0 nm - -
PQI VOR - 0 ft / 0 m 46.77419˚ -68.09453˚ 32 nm 32 nm 163° / 163° PRESQUE ISLE VOR-DME
MLT VOR - 0 ft / 0 m 45.58672˚ -68.51547˚ 73 nm 105 nm 194° / 194° MILLINOCKET VOR-DME
BGR VOR - 0 ft / 0 m 44.84181˚ -68.87397˚ 47 nm 152 nm 199° / 199° BANGOR VORTAC
ANSYN FIX - 0 ft / 0 m 44.74611˚ -70.00250˚ 48 nm 201 nm 264° / 263° -
ROOTS FIX - 0 ft / 0 m 44.99106˚ -70.66589˚ 31 nm 233 nm 298° / 297° -
ELSEQ FIX - 0 ft / 0 m 44.80686˚ -71.21536˚ 25 nm 259 nm 245° / 244° -
BML VOR - 0 ft / 0 m 44.63342˚ -71.18614˚ 10 nm 269 nm 173° / 173° BERLIN VOR-DME
O KBML APT - 0 ft / 0 m 44.58126˚ -71.17909˚ 3 nm 272 nm 174° / 175° -

Altitude Profile

Advertisement - Login to hide

Weather


0- 5 10 15 20 25 30 35+ Temperature / ° C

Clouds and Precipitation
Forecast for 2018-05-20 18:00 UTC. Updated 5 hours ago

Ground ~20,000 ft ~40,000 ft Winds

KFVE

Details ICAO KFVE (WFK)
Name NORTHERN AROOSTOOK RGNL
Region United States
Timezone America/New_York (UTC-4.0)
Stats Elevation 988 ft / 301 m (AMSL)
Location 47.285504° -68.312735°
Runways 1
Magnetic Variation 17.071° W

METAR

KFVE 202153Z AUTO 31013G24KT 10SM CLR 14/00 A2983 RMK AO2 PK WND 34028/2109 SLP103 T01440000

Decode

TAF

TAF KFVE 201738Z 2018/2118 32016G26KT P6SM BKN035 FM202200 31010KT P6SM SKC FM211200 28011G22KT P6SM SKC FM211400 30019G33KT P6SM SKC

Decode

Departure Runways

ID Width Length Bearing (true) Bearing (mag) Surface Threshold Offset Overrun Length
14 75 ft / 23 m 4,591 ft / 1,399 m 115.59° 132.66° Asphalt 0 ft / 0 m 0 ft / 0 m
32 75 ft / 23 m 4,591 ft / 1,399 m 295.61° 312.68° Asphalt 0 ft / 0 m 0 ft / 0 m

KBML

Details ICAO KBML
Name BERLIN MUNI
Region United States
Timezone America/New_York (UTC-4.0)
Stats Elevation 1,161 ft / 354 m (AMSL)
Location 44.574402° -71.176370°
Runways 1
Magnetic Variation 15.184° W

METAR

KBML 202152Z AUTO 32005KT 10SM BKN039 BKN047 BKN055 18/11 A2992 RMK AO2 SLP132 T01830111

Decode

TAF

Not found

Destination Runways

ID Width Length Bearing (true) Bearing (mag) Surface Threshold Offset Overrun Length
18 100 ft / 30 m 5,204 ft / 1,586 m 164.25° 179.43° Asphalt 0 ft / 0 m 0 ft / 0 m
36 100 ft / 30 m 5,204 ft / 1,586 m 344.25° 359.43° Asphalt 0 ft / 0 m 0 ft / 0 m

Popular Alternatives